Back to catalog

FENGYUN 1C DEB

AliveSSO
NORAD 33726·DEBRIS·🇨🇳 China

Launched May 10, 1999 from Taiyuan Satellite Launch Center

Loading…

Next Passes (next 24 hours)

TLE

FreshSource: Space-Track

Epoch: Sep 14, 2026, 04:58 UTC

1 33726U 99025DHP 26257.20699402  .00000375  00000-0  18284-3 0  9991
2 33726  98.6693  18.1214 0190580 322.6996 153.9417 14.14768545958266

Track FENGYUN 1C DEB in real time with AllMySat

Download on the App Store